SIA378 LIMC-LEBL

Flight info

Callsign SIA378
Flight time N/A
Altitude 35000
Route DOGUB6TXNEDED6I/35R NEDED DCT GEKBA DCT VAMTU DCT KOLON DCT GANGU DCT PADKO DCT DIVKO DCT NILDU DCT BISBA
Aircraft A359/H-SDE2E3GHIJ3J4J5LM1ORWXY/LB1D1

Departure

Time N/A
Airport Milan Malpensa International Airport (LIMC)

Arrival

Time 2026-05-06 14:29
Airport Josep Tarradellas Barcelona-El Prat Airport (LEBL)
Time Latitude Longitude Altitude Speed Heading
2026-05-06 13:29 44.56007 8.02608 34782 ft 369 kts 213°
2026-05-06 13:30 44.53825 8.00712 34785 ft 369 kts 213°
2026-05-06 13:30 44.49454 7.96957 34802 ft 368 kts 213°
2026-05-06 13:31 44.48000 7.95715 34802 ft 369 kts 213°
2026-05-06 13:32 44.36042 7.85536 34794 ft 375 kts 212°
2026-05-06 13:32 44.31612 7.81777 34792 ft 375 kts 213°
2026-05-06 13:33 44.27211 7.77881 34800 ft 375 kts 218°
2026-05-06 13:33 44.23207 7.73219 34805 ft 375 kts 221°
2026-05-06 13:34 44.19291 7.68405 34819 ft 375 kts 221°
2026-05-06 13:34 44.15404 7.63566 34799 ft 374 kts 223°
2026-05-06 13:35 44.12480 7.59194 34839 ft 373 kts 227°
2026-05-06 13:35 44.09027 7.53709 34827 ft 375 kts 228°
2026-05-06 13:36 44.05620 7.48245 34838 ft 376 kts 228°
2026-05-06 13:36 44.02197 7.42771 34835 ft 375 kts 228°
2026-05-06 13:37 43.98765 7.37301 34820 ft 376 kts 228°
2026-05-06 13:37 43.95343 7.31859 34844 ft 373 kts 228°
2026-05-06 13:38 43.91927 7.26440 34851 ft 372 kts 228°
2026-05-06 13:38 43.88510 7.21030 34852 ft 373 kts 228°
2026-05-06 13:39 43.85094 7.15630 34851 ft 372 kts 228°
2026-05-06 13:39 43.81705 7.10284 34853 ft 371 kts 228°
2026-05-06 13:40 43.78291 7.04911 34850 ft 371 kts 228°
2026-05-06 13:40 43.74885 6.99560 34850 ft 370 kts 228°
2026-05-06 13:41 43.71649 6.94030 34849 ft 370 kts 234°
2026-05-06 13:41 43.68820 6.88057 34852 ft 371 kts 235°
2026-05-06 13:42 43.66020 6.82067 34860 ft 371 kts 235°
2026-05-06 13:42 43.63214 6.76061 34850 ft 373 kts 235°
2026-05-06 13:43 43.60417 6.70086 34846 ft 372 kts 235°
2026-05-06 13:43 43.57609 6.64096 34858 ft 372 kts 235°
2026-05-06 13:44 43.54795 6.58108 34859 ft 372 kts 235°
2026-05-06 13:44 43.51977 6.52124 34880 ft 372 kts 235°
2026-05-06 13:45 43.49162 6.46156 34911 ft 372 kts 235°
2026-05-06 13:45 43.44907 6.37160 34861 ft 375 kts 235°
2026-05-06 13:46 43.42067 6.31169 34883 ft 373 kts 235°
2026-05-06 13:46 43.39236 6.25210 34883 ft 372 kts 235°
2026-05-06 13:47 43.36405 6.19265 34884 ft 372 kts 235°
2026-05-06 13:47 43.33567 6.13315 34888 ft 372 kts 235°
2026-05-06 13:48 43.30727 6.07375 34930 ft 372 kts 235°
2026-05-06 13:48 43.27873 6.01415 34897 ft 374 kts 235°
2026-05-06 13:49 43.25012 5.95454 34903 ft 374 kts 235°
2026-05-06 13:49 43.22153 5.89509 34911 ft 373 kts 235°
2026-05-06 13:50 43.19292 5.83571 34918 ft 373 kts 235°
2026-05-06 13:50 43.16427 5.77639 34924 ft 373 kts 235°
2026-05-06 13:51 43.13581 5.71757 34926 ft 373 kts 235°
2026-05-06 13:51 43.10718 5.65852 34926 ft 374 kts 235°
2026-05-06 13:52 43.07837 5.59920 34930 ft 374 kts 235°
2026-05-06 13:52 43.04962 5.54012 34939 ft 373 kts 235°
2026-05-06 13:53 43.02084 5.48112 34936 ft 373 kts 235°
2026-05-06 13:53 42.99272 5.42358 34937 ft 373 kts 235°
2026-05-06 13:54 42.96388 5.36468 34939 ft 373 kts 235°
2026-05-06 13:54 42.93502 5.30584 34939 ft 373 kts 235°
2026-05-06 13:55 42.91092 5.25682 34939 ft 375 kts 235°
2026-05-06 13:55 42.87695 5.18783 34939 ft 374 kts 235°
2026-05-06 13:56 42.84801 5.12919 34939 ft 373 kts 235°
2026-05-06 13:56 42.82108 5.07474 34939 ft 373 kts 235°
2026-05-06 13:57 42.79226 5.01656 34936 ft 373 kts 235°
2026-05-06 13:57 42.76334 4.95829 34939 ft 373 kts 235°
2026-05-06 13:58 42.73425 4.89981 34943 ft 375 kts 235°
2026-05-06 13:58 42.70496 4.84103 34940 ft 375 kts 235°
2026-05-06 13:59 42.67567 4.78237 34943 ft 375 kts 235°
2026-05-06 13:59 42.64648 4.72401 34949 ft 375 kts 235°
2026-05-06 14:00 42.61712 4.66543 34949 ft 375 kts 235°
2026-05-06 14:00 42.58774 4.60695 34953 ft 375 kts 235°
2026-05-06 14:01 42.56310 4.55798 34965 ft 375 kts 235°
2026-05-06 14:01 42.52882 4.48998 34950 ft 376 kts 235°
2026-05-06 14:02 42.49925 4.43145 34949 ft 376 kts 235°
2026-05-06 14:02 42.46970 4.37307 34952 ft 375 kts 235°
2026-05-06 14:03 42.44014 4.31478 34952 ft 375 kts 235°
2026-05-06 14:03 42.41055 4.25654 34952 ft 375 kts 235°
2026-05-06 14:04 42.38117 4.19885 34207 ft 373 kts 235°
2026-05-06 14:04 42.36648 4.17004 33342 ft 380 kts 235°
2026-05-06 14:04 42.35116 4.14002 32349 ft 386 kts 235°
2026-05-06 14:05 42.33585 4.11005 31372 ft 393 kts 235°
2026-05-06 14:05 42.32042 4.07988 30459 ft 397 kts 236°
2026-05-06 14:05 42.30453 4.04884 29741 ft 395 kts 236°
2026-05-06 14:05 42.28898 4.01849 29070 ft 392 kts 236°
2026-05-06 14:06 42.27868 3.99842 28625 ft 390 kts 236°
2026-05-06 14:06 42.27365 3.98862 28403 ft 389 kts 236°
2026-05-06 14:07 42.21650 3.87747 26092 ft 376 kts 236°
2026-05-06 14:07 42.20161 3.84856 25493 ft 373 kts 236°
2026-05-06 14:07 42.18688 3.82001 24903 ft 370 kts 236°
2026-05-06 14:07 42.17225 3.79167 24343 ft 367 kts 236°
2026-05-06 14:08 42.15766 3.76345 23700 ft 366 kts 236°
2026-05-06 14:08 42.14321 3.73551 23197 ft 360 kts 236°
2026-05-06 14:08 42.12907 3.70821 22871 ft 349 kts 236°
2026-05-06 14:08 42.11536 3.68175 22509 ft 340 kts 236°
2026-05-06 14:09 42.10189 3.65578 21968 ft 337 kts 236°
2026-05-06 14:09 42.08828 3.63026 21313 ft 336 kts 233°
2026-05-06 14:09 42.07250 3.60690 20288 ft 348 kts 225°
2026-05-06 14:09 42.05409 3.58489 19316 ft 358 kts 223°
2026-05-06 14:10 42.03495 3.56323 18684 ft 358 kts 222°
2026-05-06 14:10 42.01603 3.54212 18376 ft 348 kts 222°
2026-05-06 14:10 41.99757 3.52162 17967 ft 341 kts 222°
2026-05-06 14:10 41.97937 3.50144 17416 ft 338 kts 222°
2026-05-06 14:11 41.96131 3.48145 17029 ft 334 kts 221°
2026-05-06 14:11 41.94330 3.46153 16764 ft 335 kts 221°
2026-05-06 14:11 41.92614 3.44259 16501 ft 333 kts 222°
2026-05-06 14:11 41.90832 3.42294 16246 ft 330 kts 221°
2026-05-06 14:12 41.89062 3.40344 15974 ft 328 kts 221°
2026-05-06 14:12 41.87300 3.38403 15714 ft 327 kts 221°
2026-05-06 14:12 41.85548 3.36475 15491 ft 327 kts 221°
2026-05-06 14:12 41.83790 3.34543 15242 ft 328 kts 221°
2026-05-06 14:13 41.82026 3.32605 15005 ft 328 kts 221°
2026-05-06 14:13 41.80262 3.30668 14785 ft 328 kts 221°
2026-05-06 14:13 41.78497 3.28733 14567 ft 328 kts 221°
2026-05-06 14:13 41.76732 3.26797 14351 ft 328 kts 221°
2026-05-06 14:14 41.74965 3.24863 14137 ft 328 kts 221°
2026-05-06 14:14 41.73200 3.22931 13908 ft 328 kts 221°
2026-05-06 14:14 41.71436 3.21002 13548 ft 326 kts 221°
2026-05-06 14:14 41.69710 3.19054 12899 ft 325 kts 225°
2026-05-06 14:15 41.68271 3.16792 12295 ft 322 kts 237°
2026-05-06 14:15 41.67170 3.14183 11676 ft 321 kts 244°
2026-05-06 14:15 41.66195 3.11529 11294 ft 313 kts 245°
2026-05-06 14:15 41.65271 3.08946 11068 ft 301 kts 245°
2026-05-06 14:16 41.64394 3.06471 10866 ft 289 kts 245°
2026-05-06 14:16 41.63545 3.04069 10573 ft 282 kts 246°
2026-05-06 14:16 41.62714 3.01709 10177 ft 279 kts 246°
2026-05-06 14:16 41.61889 2.99367 9746 ft 277 kts 246°
2026-05-06 14:17 41.61073 2.97048 9307 ft 275 kts 246°
2026-05-06 14:17 41.60263 2.94746 8859 ft 273 kts 246°
2026-05-06 14:17 41.59457 2.92455 8420 ft 271 kts 246°
2026-05-06 14:17 41.58659 2.90191 8000 ft 268 kts 246°
2026-05-06 14:18 41.57866 2.87944 7567 ft 266 kts 246°
2026-05-06 14:18 41.57081 2.85721 7170 ft 264 kts 246°
2026-05-06 14:18 41.56310 2.83538 6750 ft 263 kts 246°
2026-05-06 14:18 41.55533 2.81340 6463 ft 261 kts 246°
2026-05-06 14:19 41.54760 2.79152 6199 ft 261 kts 246°
2026-05-06 14:19 41.53987 2.76971 5953 ft 259 kts 246°
2026-05-06 14:19 41.53217 2.74798 5689 ft 258 kts 246°
2026-05-06 14:19 41.52449 2.72632 5422 ft 256 kts 246°
2026-05-06 14:20 41.51687 2.70486 5274 ft 256 kts 245°
2026-05-06 14:20 41.50926 2.68341 5147 ft 256 kts 245°
2026-05-06 14:20 41.50164 2.66197 5022 ft 256 kts 246°
2026-05-06 14:20 41.49397 2.64042 4901 ft 257 kts 246°
2026-05-06 14:21 41.48627 2.61880 4778 ft 258 kts 245°
2026-05-06 14:21 41.47856 2.59730 4647 ft 257 kts 245°
2026-05-06 14:21 41.46953 2.57668 4519 ft 257 kts 239°
2026-05-06 14:21 41.46046 2.55613 4371 ft 257 kts 242°
2026-05-06 14:22 41.45226 2.53497 4280 ft 257 kts 245°
2026-05-06 14:22 41.44466 2.51342 4203 ft 257 kts 246°
2026-05-06 14:22 41.43746 2.49265 4130 ft 256 kts 246°
2026-05-06 14:22 41.43009 2.47100 4039 ft 255 kts 247°
2026-05-06 14:23 41.42289 2.44950 3976 ft 254 kts 247°
2026-05-06 14:23 41.41573 2.42795 3911 ft 255 kts 247°
2026-05-06 14:23 41.40878 2.40666 3854 ft 253 kts 248°
2026-05-06 14:23 41.40192 2.38577 3735 ft 240 kts 247°
2026-05-06 14:24 41.39518 2.36590 3557 ft 231 kts 246°
2026-05-06 14:24 41.38864 2.34678 3338 ft 223 kts 246°
2026-05-06 14:24 41.38240 2.32855 3120 ft 216 kts 246°
2026-05-06 14:24 41.37626 2.31056 2880 ft 210 kts 246°
2026-05-06 14:25 41.37030 2.29305 2657 ft 206 kts 245°
2026-05-06 14:25 41.36448 2.27591 2452 ft 201 kts 243°
2026-05-06 14:25 41.35878 2.25917 2282 ft 194 kts 243°
2026-05-06 14:25 41.35340 2.24337 2266 ft 182 kts 243°
2026-05-06 14:26 41.34820 2.22818 2064 ft 178 kts 244°
2026-05-06 14:26 41.34317 2.21343 1815 ft 170 kts 243°
2026-05-06 14:26 41.33852 2.19973 1600 ft 157 kts 242°
2026-05-06 14:26 41.33404 2.18670 1375 ft 151 kts 243°
2026-05-06 14:27 41.32995 2.17466 1178 ft 136 kts 243°
2026-05-06 14:27 41.32619 2.16361 1009 ft 126 kts 243°
2026-05-06 14:27 41.32263 2.15312 813 ft 124 kts 243°
2026-05-06 14:27 41.31919 2.14248 665 ft 126 kts 244°
2026-05-06 14:28 41.31544 2.13202 501 ft 125 kts 242°
2026-05-06 14:28 41.31195 2.12156 310 ft 125 kts 242°
2026-05-06 14:28 41.30831 2.11092 175 ft 127 kts 242°
2026-05-06 14:28 41.30462 2.10031 40 ft 125 kts 241°
2026-05-06 14:29 41.30143 2.09116 26 ft 82 kts 245°
2026-05-06 14:29 41.29988 2.08664 28 ft 33 kts 245°
2026-05-06 14:29 41.29904 2.08418 29 ft 25 kts 244°
2026-05-06 14:29 41.29789 2.08264 30 ft 18 kts 211°
2026-05-06 14:30 41.29688 2.08198 27 ft 17 kts 182°
2026-05-06 14:30 41.29578 2.08250 24 ft 17 kts 155°
2026-05-06 14:30 41.29471 2.08316 26 ft 12 kts 155°
2026-05-06 14:30 41.29401 2.08358 29 ft 12 kts 155°
2026-05-06 14:31 41.29319 2.08408 31 ft 14 kts 155°
2026-05-06 14:31 41.29221 2.08451 27 ft 16 kts 184°
2026-05-06 14:31 41.29105 2.08403 30 ft 19 kts 200°
2026-05-06 14:31 41.28981 2.08345 28 ft 20 kts 199°
2026-05-06 14:32 41.28848 2.08285 26 ft 18 kts 198°
2026-05-06 14:32 41.28760 2.08197 26 ft 17 kts 243°
2026-05-06 14:32 41.28717 2.08071 24 ft 12 kts 245°
2026-05-06 14:32 41.28684 2.07957 25 ft 14 kts 255°
2026-05-06 14:33 41.28642 2.07824 25 ft 17 kts 245°
2026-05-06 14:33 41.28590 2.07674 26 ft 19 kts 245°
2026-05-06 14:33 41.28536 2.07514 28 ft 17 kts 245°
2026-05-06 14:33 41.28500 2.07408 28 ft 12 kts 245°
2026-05-06 14:34 41.28511 2.07355 26 ft 6 kts 321°
2026-05-06 14:34 41.28553 2.07324 29 ft 8 kts 336°
2026-05-06 14:34 41.28562 2.07319 30 ft 0 kts 335°